Regional Weather Roundup
Issued by NWS

Home | Current Version | Previous Version | Text Only | Print | Product List | Glossary Off
Versions: 1 2 3 4 5 6 7 8 9 10 11 12 13 14 15 16 17 18 19 20 21 22 23 24 25 26 27 28 29 30 31 32 33 34 35 36 37 38 39 40 41 42 43 44 45 46 47 48 49 50

000
ASUS43 KDTX 271010
RWRMI
MICHIGAN HOURLY REGIONAL WEATHER ROUNDUP
NATIONAL WEATHER SERVICE DETROIT/PONTIAC MI
ISSUED BY NATIONAL WEATHER SERVICE GRAND RAPIDS MI
500 AM EST MON FEB 27 2017

NOTE: "FAIR" INDICATES FEW OR NO CLOUDS BELOW 12,000 FEET WITH NO
SIGNIFICANT WEATHER AND/OR OBSTRUCTION TO VISIBILITY.

MIZ047>049-052>055-059>063-066>070-074>076-081>083-271100-
SOUTHEAST LOWER MICHIGAN

CITY           SKY/WX    TMP DP  RH WIND       PRES   REMARKS
ADRIAN         CLOUDY    30  24  78 SW6       30.16R WCI  24
ALMA           PTCLDY    35  27  73 W10G17    30.09R WCI  27
ANN ARBOR      CLEAR     29  22  75 SW5       30.13R WCI  24
BAD AXE        PTCLDY    33  25  72 W6        30.06R WCI  27
DETROIT CITY   CLEAR     35  23  61 SW9       30.14R WCI  28
DETROIT        PTCLDY    32  23  69 SW9       30.15R WCI  24
FLINT          CLEAR     35  24  64 SW9       30.10R WCI  28
GROSSE ILE     CLEAR     35  24  64 SW8       30.14R WCI  28
HILLSDALE      CLEAR     34  23  64 SW8       30.11R WCI  27
HOWELL         CLEAR     34  23  63 SW8       30.10R WCI  27

CITY           SKY/WX    TMP DP  RH WIND       PRES   REMARKS
JACKSON        MOCLDY    36  23  59 SW12      30.12R WCI  28
LANSING        CLOUDY    35  23  61 SW10      30.11R WCI  27
MASON          CLEAR     35  25  68 SW7       30.11R WCI  29
MONROE         CLOUDY    33  24  70 S6        30.15R WCI  28
MT. CLEMENS    CLEAR     35  23  62 SW10      30.11R WCI  27
PONTIAC        CLEAR     34  22  61 SW6       30.09R WCI  29
PORT HOPE        N/A     36  26  67 W5        30.03R WCI  32
PORT HURON     CLEAR     34  23  64 SW6       30.11R WCI  29
TRI CITIES     PTCLDY    34  27  75 SW7       30.07R WCI  28
YPSILANTI      CLEAR     33  24  69 SW12      30.14R WCI  24
$$
MIZ043>046-050>051-056>058-064>065-071>073-077>080-271100-
SOUTHWEST LOWER MICHIGAN

CITY           SKY/WX    TMP DP  RH WIND       PRES   REMARKS
BATTLE CREEK   CLEAR     32  24  72 SW9       30.11R WCI  24
BENTON HARBOR  PTCLDY    36  26  67 SW12      30.12R WCI  28
BIG RAPIDS     CLEAR     30  24  78 W3        30.05R
COLDWATER      CLEAR     34  23  66 SW7       30.13R WCI  27
HOLLAND        CLEAR     35  28  75 W6        30.11R WCI  30
GRAND RAPIDS   CLEAR     33  28  81 SW8       30.10R WCI  26
KALAMAZOO      PTCLDY    35  22  58 SW8       30.12R WCI  29
MARSHALL       PTCLDY    35  23  62 SW7       30.11R WCI  29
MOUNT PLEASANT CLEAR     32  26  77 W6        30.07R WCI  26
MUSKEGON       CLEAR     34  25  69 W8        30.10R WCI  27
STURGIS        PTCLDY    30  24  77 SW7       30.13R WCI  23
$$
MIZ016>042-271100-
NORTHERN LOWER MICHIGAN

CITY           SKY/WX    TMP DP  RH WIND       PRES   REMARKS
ALPENA         CLEAR     24  19  81 NW5       30.07R WCI  18
BEAVER ISLAND  PTCLDY    23  14  67 NW6       30.06R WCI  16
BELLAIRE       CLOUDY    27  15  61 CALM      30.08R
CADILLAC       PTCLDY    23  20  86 CALM      30.03R
CHARLEVOIX     CLEAR     25  14  63 W6        30.09R WCI  18
GAYLORD        CLOUDY    24  13  62 CALM      30.02R
HOUGHTON LAKE  CLOUDY    26  20  77 NW7       30.05R WCI  18
MANISTEE       MOCLDY    27  21  78 CALM      30.09R
OSCODA         CLOUDY    29  24  80 N3        30.06R
PELLSTON       PTCLDY    16   9  74 CALM      30.06R
TRAVERSE CITY  CLOUDY    28  14  55 N3        30.07R
LUDINGTON      PTCLDY    30  25  82 N3        30.07R
$$
MIZ007>008-015-271100-
EASTERN UPPER MICHIGAN

CITY           SKY/WX    TMP DP  RH WIND       PRES   REMARKS
KINROSS        CLEAR     11   9  92 W6        30.02R WCI   1
MACKINAC ISLAN CLEAR     21  16  79 W8        30.05R WCI  11
NEWBERRY       CLEAR     12  10  89 W5        30.02R WCI   4
S. S. MARIE    PTCLDY    23  12  62 W8        30.00R WCI  14
$$
MIZ004>006-011>014-085-271100-
CENTRAL UPPER MICHIGAN

CITY           SKY/WX    TMP DP  RH WIND       PRES   REMARKS
MANISTIQUE     PTCLDY    12   7  79 W6        30.06R WCI   3
ESCANABA       CLEAR     13   9  84 NW3       30.08R
MENOMINEE      CLEAR     17  11  77 CALM      30.09R
SAWYER-GWINN   CLEAR     -2  -5  87 CALM      30.02R
$$
MIZ001>003-009>011-084-271100-
WESTERN UPPER MICHIGAN

CITY           SKY/WX    TMP DP  RH WIND       PRES   REMARKS
IRON MOUNTAIN  CLEAR      3  -2  79 NW3       30.01S
HOUGHTON       CLEAR     11   3  70 CALM      29.96S
COPPER HARBOR    N/A     11   4  73 W8        29.99S WCI  -1
IRONWOOD       CLOUDY     2  -1  88 S3        29.98R
$$

ABBREVIATIONS USED IN REMARKS
   TC - TEMPERATURE IN CELSIUS
  WCI - WIND CHILL INDEX
   HX - HEAT INDEX
  VSB - VISIBILITY





USA.gov is the U.S. government's official web portal to all federal, state and local government web resources and services.